Home   Weather   Bozeman   Past weeks

Flag for USA Past Weather in Bozeman, Montana, USA — Yesterday and Last 2 Weeks

Now
10 °F

Light snow. Ice fog.


Feels Like: 4 °F
Forecast: 16 / 36 °F
Wind: 3 mph from Northwest

Location: Gallatin Field

Current Time: Dec 10, 2016 at 12:05:31 am

Latest Report: Dec 9, 2016 at 10:56 pm


Visibility: 4 mi

Pressure: 30.21 "Hg (24.92 "Hg at 1469m altitude)

Humidity: 84%

Dew Point: 6 °F

Location of BozemanLocation

Past Weather in Bozeman — Graph

°F

Bozeman Temperature Yesterday

Maximum temperature yesterday: 10 °F (at 9:56 pm)
Minimum temperature yesterday: 2 °F (at 6:56 am)
Average temperature yesterday: 6 °F

High & Low Weather Summary for the Past Weeks

 TemperatureHumidityPressure
High55 °F (Nov 26, 1:56 pm)96% (Nov 28, 5:56 am)30.68 "Hg (Nov 28, 5:56 am)
Low-5 °F (Dec 8, 6:56 am)22% (Nov 26, 1:56 pm)29.46 "Hg (Nov 28, 3:56 am)
Average24 °F72%30.09 "Hg
* Reported Nov 24 10:56 pm — Dec 9 10:56 pm, Bozeman, Weather by CustomWeather, © 2016

Note: Actual official high and low records may vary slightly from our data, if they occured in-between our weather recording intervals... More about our weather records

Advertising

Bozeman Weather History for the Previous 24 Hours

Scroll right to see more
 ConditionsComfort  
Time TempWeatherWind HumidityBarometerVisibility
10:56 pm
Fri, Dec 9
10 °FLight snow. Ice fog.3 mph84%30.21 "Hg4 mi
9:56 pm10 °FLight snow. Ice fog.No wind84%30.22 "Hg1 mi
8:56 pm9 °FLight snow. Ice fog.No wind84%30.23 "Hg1 mi
7:56 pm9 °FLight snow. Overcast.No wind80%30.24 "Hg3 mi
6:56 pm9 °FLight snow. Overcast.No wind76%30.26 "Hg3 mi
5:56 pm9 °FOvercast.No wind73%30.27 "Hg10 mi
4:56 pm8 °FOvercast.No wind72%30.31 "Hg10 mi
3:56 pm9 °FOvercast.No wind70%30.32 "Hg10 mi
2:56 pm8 °FOvercast.No wind72%30.33 "Hg10 mi
1:56 pm7 °FOvercast.3 mph73%30.34 "Hg10 mi
12:56 pm9 °FPassing clouds.No wind64%30.36 "Hg10 mi
11:56 am8 °FSunny.No wind69%30.40 "Hg10 mi
10:56 am4 °FPassing clouds.3 mph76%30.43 "Hg10 mi
9:56 am2 °FSunny.No wind80%30.43 "Hg10 mi
8:56 am2 °FSunny.6 mph80%30.44 "Hg10 mi
7:56 am4 °FOvercast.6 mph80%30.43 "Hg10 mi
6:56 am2 °FPassing clouds.5 mph83%30.43 "Hg10 mi
5:56 am4 °FLight snow. Mostly cloudy.3 mph84%30.41 "Hg10 mi
4:56 am4 °FLight snow. Ice fog.5 mph84%30.41 "Hg3 mi
3:56 am4 °FLight snow. Ice fog.5 mph84%30.40 "Hg3 mi
2:56 am5 °FLight snow. Overcast.5 mph80%30.40 "Hg3 mi
1:56 am5 °FLight snow. Ice fog.8 mph83%30.41 "Hg1 mi
12:56 am6 °FLight snow. Ice fog.7 mph83%30.38 "Hg5 mi
Weather by CustomWeather, © 2016

See weather overviewHow to use our weather pages